Other Public Products
Issued by NWS Charleston, SC

Current Version | Previous Version | Graphics & Text | Print | Product List | Glossary On
Versions: 1 2 3 4 5 6 7 8 9 10 11 12 13 14 15 16 17 18 19 20 21 22 23 24 25 26 27 28 29 30 31 32 33 34 35 36 37 38 39 40 41 42 43 44 45 46 47 48 49 50
813 FPUS82 KCHS 190727 OPUCHS TEST...KCHS/KSAV Gateway Observations...TEST National Weather Service Charleston SC 200 AM EST MON FEB 19 2018 NOTE: "fair" indicates few or no clouds below 12,000 feet with no significant weather and/or obstructions to visibility. SCZ050-WAZ558-NCZ071-TXZ119-213-PAZ071-DCZ001-FLZ074-172-MI076- NYZ176-178-MAZ016-IL014-TNZ027-NJZ106-GAZ044-MD014-190800- ...Gateway Observations for Charleston International... CITY SKY/WX TMP DP RH WIND PRES REMARKS Chas Airport CLOUDY 58 55 90 NE6 30.33F Seattle MOCLDY 30 16 56 N16G24 29.97R WCI 19 Charlotte LGT RAIN 52 52 100 E5 30.37S FOG Dallas DFW CLOUDY 68 62 81 S22G29 29.84F Dallas Love CLOUDY 64 61 90 S17 29.85F Philladelphia MOCLDY 34 26 72 E7 30.52R WCI 28 Wash National CLOUDY 40 34 79 S12 30.50S WCI 33 Baltimore MOCLDY 34 33 96 CALM 30.49S Miami FAIR 75 65 70 E15 30.21F Detroit CLOUDY 33 27 78 SE6 30.06F WCI 28 Newark FAIR 34 26 72 CALM 30.52S Laguardia FAIR 34 29 82 E6 30.53S WCI 29 J F K FAIR 33 27 78 E7 30.54S WCI 27 Boston Logan FAIR 30 24 78 S6 30.54S WCI 24 Ft. Lauderdale FAIR 74 66 76 E18 30.21F Chicago O`Hare CLOUDY 39 32 76 S10 29.86F WCI 32 Chicago Midway CLOUDY 40 33 76 S8 29.87F WCI 34 Houston Bush MOCLDY 70 66 87 S20G26 29.99F Houston Hobby FAIR 68 67 96 S12 30.00F Nashville CLOUDY 58 54 86 S7 30.17R Atlanta DRZL/FOG 59 59 100 E9 30.27S VSB 1/2 $$ GAZ044-118-TXZ119-213-NCZ071-DCZ001-MDZ014-506-PAZ021-071-NJZ106- NYZ176-178-MAZ106-OHZ011-021-055-MIZ076-KYZ091-ILZ014-INZ047- MNZ060-ONZ431-190800- ...Gateway Observations for Savannah International... CITY SKY/WX TMP DP RH WIND PRES REMARKS Savannah Arpt MOCLDY 58 57 97 E3 30.31F Atlanta DRZL/FOG 59 59 100 E9 30.27S VSB 1/2 Charlotte LGT RAIN 52 52 100 E5 30.37S FOG Dallas DFW CLOUDY 68 62 81 S22G29 29.84F Houston Bush MOCLDY 70 66 87 S20G26 29.99F Wash National CLOUDY 40 34 79 S12 30.50S WCI 33 Wash Dulles CLOUDY 38 33 82 S5 30.48R WCI 34 Baltimore MOCLDY 34 33 96 CALM 30.49S Philadelphia MOCLDY 34 26 72 E7 30.52R WCI 28 Newark FAIR 34 26 72 CALM 30.52S Laguardia FAIR 34 29 82 E6 30.53S WCI 29 J F K FAIR 33 27 78 E7 30.54S WCI 27 Boston FAIR 30 24 78 S6 30.54S WCI 24 Pittsburg CLOUDY 34 27 75 SE5 30.17S WCI 30 Akron FAIR 35 26 69 S13 30.12S WCI 26 Cleveland MOCLDY 35 28 75 S12 30.13F WCI 27 Cincinnati MOCLDY 41 35 79 S10 30.06F Columbus FAIR 33 30 88 SE5 30.10F WCI 29 Detroit CLOUDY 33 27 78 SE6 30.06F WCI 28 Chicago O`Hare CLOUDY 39 32 76 S10 29.86F WCI 32 Minneapolis FAIR 26 23 88 N12 29.76S WCI 16 Indianapolis MOCLDY 44 34 67 S12 30.00F Toronto Canada MOCLDY 30 25 80 SE7 30.15F WCI 23 $$

USA.gov is the U.S. government's official web portal to all federal, state and local government web resources and services.